Regional Weather Roundup
Issued by NWS Kansas City/Pleasant Hill, MO

Home | Current Version | Previous Version | Text Only | Print | Product List | Glossary On
Versions: 1 2 3 4 5 6 7 8 9 10 11 12 13 14 15 16 17 18 19 20 21 22 23 24 25 26 27
000
ASUS43 KEAX 191910
RWREAX

WEATHER ROUNDUP FOR EASTERN KANSAS AND NORTHWEST MISSOURI
NATIONAL WEATHER SERVICE KANSAS CITY/PLEASANT HILL MO
100 PM CST SUN NOV 19 2017

KSZ040-057-103>105-MOZ028-029-037-043-192000-
...KANSAS CITY METROPOLITAN AREA...

CITY           SKY/WX    TMP DP  RH WIND       PRES   REMARKS
K.C. INTL      SUNNY     48  26  42 SW12      30.19F
K.C. DOWNTOWN  SUNNY     50  24  36 VRB7      30.20F
LEES SUMMIT    SUNNY     47  23  38 SW10      30.22F
OLATHE - IXD   SUNNY     49  27  42 SW8       30.22F
OLATHE - OJC   SUNNY     47  25  42 SW7       30.22F
LAWRENCE       SUNNY     52  29  41 S12       30.21F

$$

MOZ001>008-011>017-020>025-030>033-038>040-044>046-053-054-192000-
...NORTHERN AND CENTRAL MISSOURI...

CITY           SKY/WX    TMP DP  RH WIND       PRES   REMARKS
ST. JOSEPH     SUNNY     49  27  42 SW12      30.18F
MOSBY          CLEAR     46  23  39 SW7       30.20F
WARRENSBURG    SUNNY     45  23  42 SW6       30.23F
WHITEMAN AFB   NOT AVBL
CLINTON        SUNNY     45  23  42 MISG      30.26F
SEDALIA        SUNNY     46  25  43 CALM      30.24F
WARSAW         NOT AVBL
CHILLICOTHE      N/A     45  23  42 SW5       30.21F
KIRKSVILLE     SUNNY     41  23  48 SW8       30.19F

$$

MOZ041-047>049-056>058-063>065-088>090-097-192000-
...EASTERN AND SOUTHERN MISSOURI...

CITY           SKY/WX    TMP DP  RH WIND       PRES   REMARKS
ST. LOUIS INTL MOSUNNY   41  18  39 NW13      30.22F WCI  34
SPIRIT OF STL  SUNNY     41  21  44 W6        30.22F
COLUMBIA       SUNNY     42  21  43 NW14      30.23F WCI  35
JEFFERSON CITY SUNNY     42  20  41 NW8       30.25F
ROLLA          SUNNY     42  19  39 NW9       30.23F
OSAGE BEACH    SUNNY     45  21  38 VRB7      30.25F
SPRINGFIELD    SUNNY     48  26  42 N5        30.24F
BRANSON        SUNNY     48  21  34 NW13G18   30.26F
JOPLIN         SUNNY     49  27  42 CALM      30.27F
WEST PLAINS    SUNNY     50  18  28 N9G18     30.22F

$$

IAZ060-094-KSZ022-034>040-054-083-096-NEZ052-066-093-192000-
...KANSAS...SOUTHEAST NEBRASKA AND IOWA...

CITY           SKY/WX    TMP DP  RH WIND       PRES   REMARKS
TOPEKA         SUNNY     53  29  39 S8        30.19F
MANHATTAN      SUNNY     55  25  31 SW10G18   30.17F
EMPORIA        SUNNY     55  23  28 SW10G18   30.21F
CHANUTE        SUNNY     52  29  41 SW8       30.25F
WICHITA        MOSUNNY   57  22  25 S17       30.20F
OMAHA          MOSUNNY   49  29  46 S12       30.09F
LINCOLN        SUNNY     53  26  35 SW16      30.11F
FALLS CITY     SUNNY     51  29  42 S14       30.15F
LAMONI         SUNNY     44  23  43 SW14      30.15F
DES MOINES     MOSUNNY   45  22  40 SW10      30.12F

$$





USA.gov is the U.S. government's official web portal to all federal, state and local government web resources and services.